Time,TemperatureF,DewpointF,PressureIn,WindDirection,WindDirectionDegrees,WindSpeedMPH,WindSpeedGustMPH,Humidity,HourlyPrecipIn,Conditions,Clouds,dailyrainin,SoftwareType,DateUTC
2013-03-04 00:02:00,38.0,-99.9,-100.00,WNW,296,12.0,17.0,-999,-99.99,,,-99.99,,2013-03-04 08:02:00,
2013-03-04 00:12:00,38.0,-99.9,-100.00,WNW,296,12.0,17.0,-999,-99.99,,,-99.99,,2013-03-04 08:12:00,
2013-03-04 00:53:00,36.0,-99.9,-100.00,WNW,300,8.0,12.0,-999,-99.99,,,-99.99,,2013-03-04 08:53:00,
2013-03-04 01:02:00,36.0,-99.9,-100.00,WNW,300,8.0,12.0,-999,-99.99,,,-99.99,,2013-03-04 09:02:00,
2013-03-04 01:11:00,36.0,-99.9,-100.00,WNW,300,8.0,12.0,-999,-99.99,,,-99.99,,2013-03-04 09:11:00,
2013-03-04 02:02:00,32.0,-99.9,-100.00,West,277,6.0,9.0,-999,-99.99,,,-99.99,,2013-03-04 10:02:00,
2013-03-04 02:12:00,32.0,-99.9,-100.00,West,277,6.0,9.0,-999,-99.99,,,-99.99,,2013-03-04 10:12:00,
2013-03-04 03:02:00,28.0,-99.9,-100.00,WNW,284,6.0,8.0,-999,-99.99,,,-99.99,,2013-03-04 11:02:00,
2013-03-04 03:11:00,28.0,-99.9,-100.00,WNW,284,6.0,8.0,-999,-99.99,,,-99.99,,2013-03-04 11:11:00,
2013-03-04 03:52:00,27.0,-99.9,-100.00,WNW,291,6.0,8.0,-999,-99.99,,,-99.99,,2013-03-04 11:52:00,
2013-03-04 04:02:00,27.0,-99.9,-100.00,WNW,291,6.0,8.0,-999,-99.99,,,-99.99,,2013-03-04 12:02:00,
2013-03-04 04:12:00,27.0,-99.9,-100.00,WNW,291,6.0,8.0,-999,-99.99,,,-99.99,,2013-03-04 12:12:00,
2013-03-04 05:02:00,29.0,-99.9,-100.00,South,187,2.0,6.0,-999,-99.99,,,-99.99,,2013-03-04 13:02:00,
2013-03-04 05:11:00,29.0,-99.9,-100.00,South,187,2.0,6.0,-999,-99.99,,,-99.99,,2013-03-04 13:11:00,
2013-03-04 06:01:00,22.0,-99.9,-100.00,SSE,156,6.0,8.0,-999,-99.99,,,-99.99,,2013-03-04 14:01:00,
2013-03-04 06:12:00,22.0,-99.9,-100.00,SSE,156,6.0,8.0,-999,-99.99,,,-99.99,,2013-03-04 14:12:00,
2013-03-04 07:02:00,21.0,-99.9,-100.00,SE,140,3.0,7.0,-999,-99.99,,,-99.99,,2013-03-04 15:02:00,
2013-03-04 07:11:00,21.0,-99.9,-100.00,SE,140,3.0,7.0,-999,-99.99,,,-99.99,,2013-03-04 15:11:00,
2013-03-04 08:03:00,22.0,-99.9,-100.00,West,264,3.0,3.0,-999,-99.99,,,-99.99,,2013-03-04 16:03:00,
2013-03-04 08:11:00,22.0,-99.9,-100.00,West,264,3.0,3.0,-999,-99.99,,,-99.99,,2013-03-04 16:11:00,
2013-03-04 09:02:00,34.0,-99.9,-100.00,East,98,1.0,2.0,-999,-99.99,,,-99.99,,2013-03-04 17:02:00,
2013-03-04 09:11:00,34.0,-99.9,-100.00,East,98,1.0,2.0,-999,-99.99,,,-99.99,,2013-03-04 17:11:00,
2013-03-04 10:02:00,38.0,-99.9,-100.00,SE,135,6.0,9.0,-999,-99.99,,,-99.99,,2013-03-04 18:02:00,
2013-03-04 10:11:00,38.0,-99.9,-100.00,SE,135,6.0,9.0,-999,-99.99,,,-99.99,,2013-03-04 18:11:00,
2013-03-04 10:53:00,44.0,-99.9,-100.00,SE,137,3.0,7.0,-999,-99.99,,,-99.99,,2013-03-04 18:53:00,
2013-03-04 11:02:00,44.0,-99.9,-100.00,SE,137,3.0,7.0,-999,-99.99,,,-99.99,,2013-03-04 19:02:00,
2013-03-04 11:12:00,44.0,-99.9,-100.00,SE,137,3.0,7.0,-999,-99.99,,,-99.99,,2013-03-04 19:12:00,
2013-03-04 12:02:00,45.0,-99.9,-100.00,ENE,71,3.0,8.0,-999,-99.99,,,-99.99,,2013-03-04 20:02:00,
2013-03-04 12:12:00,45.0,-99.9,-100.00,ENE,71,3.0,8.0,-999,-99.99,,,-99.99,,2013-03-04 20:12:00,
2013-03-04 13:02:00,47.0,-99.9,-100.00,SE,124,3.0,8.0,-999,-99.99,,,-99.99,,2013-03-04 21:02:00,
2013-03-04 13:12:00,47.0,-99.9,-100.00,SE,124,3.0,8.0,-999,-99.99,,,-99.99,,2013-03-04 21:12:00,
2013-03-04 14:02:00,50.0,-99.9,-100.00,ESE,121,5.0,13.0,-999,-99.99,,,-99.99,,2013-03-04 22:02:00,
2013-03-04 14:12:00,50.0,-99.9,-100.00,ESE,121,5.0,13.0,-999,-99.99,,,-99.99,,2013-03-04 22:12:00,
2013-03-04 14:52:00,51.0,-99.9,-100.00,ESE,113,5.0,10.0,-999,-99.99,,,-99.99,,2013-03-04 22:52:00,
2013-03-04 15:02:00,51.0,-99.9,-100.00,ESE,113,5.0,10.0,-999,-99.99,,,-99.99,,2013-03-04 23:02:00,
2013-03-04 15:12:00,51.0,-99.9,-100.00,ESE,113,5.0,10.0,-999,-99.99,,,-99.99,,2013-03-04 23:12:00,
2013-03-04 16:02:00,52.0,-99.9,-100.00,ENE,74,5.0,12.0,-999,-99.99,,,-99.99,,2013-03-05 00:02:00,
2013-03-04 16:12:00,52.0,-99.9,-100.00,ENE,74,5.0,12.0,-999,-99.99,,,-99.99,,2013-03-05 00:12:00,
2013-03-04 17:02:00,51.0,-99.9,-100.00,East,84,6.0,10.0,-999,-99.99,,,-99.99,,2013-03-05 01:02:00,
2013-03-04 17:12:00,51.0,-99.9,-100.00,East,84,6.0,10.0,-999,-99.99,,,-99.99,,2013-03-05 01:12:00,
2013-03-04 18:02:00,50.0,-99.9,-100.00,East,95,5.0,9.0,-999,-99.99,,,-99.99,,2013-03-05 02:02:00,
2013-03-04 18:12:00,50.0,-99.9,-100.00,East,95,5.0,9.0,-999,-99.99,,,-99.99,,2013-03-05 02:12:00,
2013-03-04 19:02:00,41.0,-99.9,-100.00,East,80,3.0,3.0,-999,-99.99,,,-99.99,,2013-03-05 03:02:00,
2013-03-04 19:12:00,41.0,-99.9,-100.00,East,80,3.0,3.0,-999,-99.99,,,-99.99,,2013-03-05 03:12:00,
2013-03-04 20:02:00,32.0,-99.9,-100.00,North,1,3.0,5.0,-999,-99.99,,,-99.99,,2013-03-05 04:02:00,
2013-03-04 20:12:00,32.0,-99.9,-100.00,North,1,3.0,5.0,-999,-99.99,,,-99.99,,2013-03-05 04:12:00,
2013-03-04 21:03:00,27.0,-99.9,-100.00,NW,307,5.0,6.0,-999,-99.99,,,-99.99,,2013-03-05 05:03:00,
2013-03-04 22:02:00,27.0,-99.9,-100.00,WNW,292,6.0,7.0,-999,-99.99,,,-99.99,,2013-03-05 06:02:00,
2013-03-04 22:52:00,28.0,-99.9,-100.00,WNW,287,6.0,8.0,-999,-99.99,,,-99.99,,2013-03-05 06:52:00,
2013-03-04 23:01:00,28.0,-99.9,-100.00,WNW,287,6.0,8.0,-999,-99.99,,,-99.99,,2013-03-05 07:01:00,
2013-03-04 23:11:00,28.0,-99.9,-100.00,WNW,287,6.0,8.0,-999,-99.99,,,-99.99,,2013-03-05 07:11:00,
2013-03-04 23:52:00,33.0,-99.9,-100.00,WNW,289,6.0,8.0,-999,-99.99,,,-99.99,,2013-03-05 07:52:00,